Weather History for Allentown, PA

Change the Weather History Date:

Sunday, January 1, 2006

  Actual Average Record
Temperature  
Mean Temperature 32 °F 28 °F  
Max Temperature 41 °F 37 °F 62 °F (2005)
Min Temperature 23 °F 20 °F -3 °F (1968)
Degree Days  
Heating Degree Days 33 37  
Month to date heating degree days 33 37  
Since 1 July heating degree days 2050 2232  
Cooling Degree Days 0 0  
Month to date cooling degree days 0 0  
Year to date cooling degree days 0 0  
Moisture  
Dew Point 28 °F    
Average Humidity 81    
Maximum Humidity 96    
Minimum Humidity 65    
Precipitation  
Precipitation 0.00 in 0.09 in 1.41 in (1945)
Month to date precipitation 0.00 0.09  
Year to date precipitation 0.00 0.09  
Snow  
Snow 0.00 in 0.30 in 7.80 in (1971)
Month to date snowfall 0.0 0.3  
Since 1 July snowfall 14.6 6.2  
Snow Depth 0.00 in    
Sea Level Pressure  
Sea Level Pressure 30.00 in    
Wind  
Wind Speed 4 mph (WSW)    
Max Wind Speed 8 mph    
Max Gust Speed 10 mph    
Visibility 6 miles    
Events Fog    
T = Trace of Precipitation, MM = Missing Value Source: NWS Daily Summary

Daily Weather History Graph

Daily Weather History Graph

Search for Another Location

Airport:

Trip Planner

Search our weather history database for the weather conditions in past years. The results will help you decide how hot, cold, wet, or windy it might be!

Date:

Astronomy

Jan. 01, 2006 Rise Set
Actual Time 7:25 AM EST 4:45 PM EST
Civil Twilight 6:54 AM EST 5:16 PM EST
Nautical Twilight 6:20 AM EST 5:50 PM EST
Astronomical Twilight 5:47 AM EST 6:23 PM EST
Moon 9:08 AM EST 6:32 PM EST
Length of Visible Light 10h 21m
Length of Day
9h 19m
Waxing Crescent, 4% of the Moon is Illuminated
Jan 1
Waxing Crescent
Jan 6
First Quarter
Jan 14
Full
Jan 22
Last Quarter
Jan 29
New

Hourly Weather History & Observations

Time (EST) Temp. Windchill Dew Point Humidity Pressure Visibility Wind Dir Wind Speed Gust Speed Precip Events Conditions
12:00 AM 32.0 °F 28.7 °F 28.4 °F 87% 29.83 in 2.0 mi SW 3.5 mph - 0.00 in   Overcast
12:23 AM 32.0 °F 26.4 °F 28.4 °F 87% 29.83 in 4.0 mi SW 5.8 mph - 0.00 in   Overcast
12:30 AM 32.0 °F 28.7 °F 28.4 °F 87% 29.83 in 4.0 mi SW 3.5 mph - 0.00 in   Overcast
12:51 AM 30.9 °F 25.2 °F 28.0 °F 89% 29.85 in 4.0 mi SW 5.8 mph - 0.00 in   Overcast
1:51 AM 28.9 °F 22.8 °F 26.1 °F 89% 29.88 in 3.0 mi WSW 5.8 mph - N/A   Partly Cloudy
2:28 AM 26.6 °F 20.0 °F 24.8 °F 93% 29.88 in 2.5 mi WSW 5.8 mph - N/A   Clear
2:51 AM 25.0 °F 18.1 °F 23.0 °F 92% 29.91 in 1.5 mi SW 5.8 mph - N/A   Clear
3:17 AM 26.6 °F 20.0 °F 24.8 °F 93% 29.90 in 2.5 mi SW 5.8 mph - N/A   Clear
3:34 AM 26.6 °F 20.0 °F 24.8 °F 93% 29.91 in 3.0 mi WSW 5.8 mph - N/A   Clear
3:51 AM 30.0 °F - 27.0 °F 88% 29.92 in 3.0 mi Calm Calm - N/A   Clear
4:05 AM 26.6 °F 22.6 °F 24.8 °F 93% 29.91 in 1.5 mi SW 3.5 mph - N/A   Partly Cloudy
4:25 AM 26.6 °F 20.0 °F 24.8 °F 93% 29.91 in 2.0 mi SSW 5.8 mph - N/A   Scattered Clouds
4:51 AM 28.9 °F - 25.0 °F 85% 29.94 in 2.0 mi Calm Calm - N/A   Scattered Clouds
5:21 AM 26.6 °F - 24.8 °F 93% 29.93 in 1.2 mi Calm Calm - N/A   Clear
5:37 AM 24.8 °F - 23.0 °F 93% 29.93 in 0.5 mi Calm Calm - N/A Fog Light Freezing Fog
5:44 AM 24.8 °F - 23.0 °F 93% 29.94 in 0.2 mi Calm Calm - N/A Fog Light Freezing Fog
5:51 AM 26.1 °F 21.9 °F 23.0 °F 88% 29.96 in 6.0 mi SE 3.5 mph - N/A   Clear
5:58 AM 26.6 °F - 23.0 °F 86% 29.95 in 6.0 mi Calm Calm - N/A   Scattered Clouds
6:51 AM 30.0 °F - 27.0 °F 88% 29.96 in 6.0 mi Calm Calm - N/A   Overcast
7:51 AM 30.9 °F 25.2 °F 28.0 °F 89% 29.99 in 4.0 mi WSW 5.8 mph - N/A   Overcast
8:51 AM 33.1 °F 28.7 °F 30.0 °F 89% 30.02 in 5.0 mi SW 4.6 mph - N/A   Overcast
9:51 AM 37.0 °F 33.3 °F 30.9 °F 79% 30.05 in 10.0 mi West 4.6 mph - N/A   Overcast
10:51 AM 37.9 °F 33.5 °F 30.9 °F 76% 30.06 in 10.0 mi West 5.8 mph - N/A   Overcast
11:51 AM 39.0 °F 34.8 °F 30.9 °F 73% 30.06 in 10.0 mi West 5.8 mph - N/A   Overcast
12:51 PM 39.9 °F 36.7 °F 32.0 °F 73% 30.07 in 10.0 mi West 4.6 mph - N/A   Overcast
1:51 PM 41.0 °F 36.4 °F 32.0 °F 70% 30.08 in 10.0 mi West 6.9 mph - N/A   Overcast
2:51 PM 41.0 °F 36.4 °F 32.0 °F 70% 30.10 in 10.0 mi West 6.9 mph - N/A   Overcast
3:51 PM 41.0 °F 38.0 °F 30.9 °F 67% 30.12 in 10.0 mi WSW 4.6 mph - N/A   Overcast
4:51 PM 39.9 °F - 30.9 °F 70% 30.14 in 10.0 mi Calm Calm - N/A   Overcast
5:51 PM 37.9 °F - 30.0 °F 73% 30.15 in 10.0 mi Calm Calm - N/A   Overcast
6:51 PM 37.9 °F - 30.0 °F 73% 30.17 in 10.0 mi Calm Calm - N/A   Overcast
7:51 PM 35.1 °F 32.2 °F 28.9 °F 78% 30.18 in 10.0 mi SSW 3.5 mph - N/A   Clear
8:51 PM 34.0 °F 29.8 °F 30.0 °F 85% 30.18 in 10.0 mi SW 4.6 mph - N/A   Clear
9:51 PM 33.1 °F 28.7 °F 28.9 °F 85% 30.20 in 8.0 mi WSW 4.6 mph - N/A   Clear
10:51 PM 30.9 °F 25.2 °F 27.0 °F 85% 30.21 in 8.0 mi WSW 5.8 mph - N/A   Clear
11:51 PM 30.0 °F - 27.0 °F 88% 30.21 in 6.0 mi Calm Calm - N/A   Clear